Weather History for Grafton, ND

Change the Weather History Date:

Friday, December 2, 2011

  Actual Average Record
Temperature  
Mean Temperature 27 °F -  
Max Temperature 35 °F 22 °F 54 °F (1982)
Min Temperature 19 °F 7 °F -21 °F (1978)
Degree Days  
Heating Degree Days 38    
Moisture  
Dew Point 19 °F    
Average Humidity 64    
Maximum Humidity 93    
Minimum Humidity 48    
Precipitation  
Precipitation 0.00 in - - ()
Sea Level Pressure  
Sea Level Pressure 29.81 in    
Wind  
Wind Speed 15 mph (SSW)    
Max Wind Speed 30 mph    
Max Gust Speed 38 mph    
Visibility 10 miles    
Events      
Averages and records for this station are not official NWS values.
T = Trace of Precipitation, MM = Missing Value Source: NWS Daily Summary

Daily Weather History Graph

Daily Weather History Graph

Search for Another Location

Airport:

Trip Planner

Search our weather history database for the weather conditions in past years. The results will help you decide how hot, cold, wet, or windy it might be!

Date:

Astronomy

Dec. 02, 2011 Rise Set
Actual Time 8:00 AM CST 4:36 PM CST
Civil Twilight 7:24 AM CST 5:12 PM CST
Nautical Twilight 6:45 AM CST 5:51 PM CST
Astronomical Twilight 6:07 AM CST 6:29 PM CST
Moon 12:45 PM CST (12/2) No Moon Set
Length of Visible Light 9h 47m
Length of Day
8h 35m
First Quarter, 53% of the Moon is Illuminated
Dec 2
First Quarter
Dec 10
Full
Dec 17
Last Quarter
Dec 24
New
Jan 1
First Quarter

Hourly Weather History & Observations

Time (CST) Temp. Windchill Dew Point Humidity Pressure Visibility Wind Dir Wind Speed Gust Speed Precip Events Conditions
12:15 AM 19.4 °F 8.6 °F 17.6 °F 93% 30.12 in 10.0 mi South 9.2 mph - N/A   Clear
12:35 AM 23.0 °F 10.6 °F 17.6 °F 80% 30.09 in 10.0 mi South 13.8 mph - N/A   Clear
12:55 AM 21.2 °F 8.9 °F 17.6 °F 86% 30.08 in 10.0 mi SSW 12.7 mph - N/A   Clear
1:15 AM 24.8 °F 13.4 °F 17.6 °F 74% 30.07 in 10.0 mi SSW 12.7 mph 19.6 mph N/A   Clear
1:35 AM 23.0 °F 10.6 °F 17.6 °F 80% 30.06 in 10.0 mi SSW 13.8 mph - N/A   Clear
1:55 AM 24.8 °F 12.4 °F 17.6 °F 74% 30.04 in 10.0 mi SSW 15.0 mph 24.2 mph N/A   Clear
2:35 AM 24.8 °F 10.7 °F 17.6 °F 74% 30.02 in 10.0 mi SSW 19.6 mph 26.5 mph N/A   Clear
3:55 AM 26.6 °F 14.7 °F 17.6 °F 69% 29.98 in 10.0 mi SW 15.0 mph 21.9 mph N/A   Clear
4:15 AM 26.6 °F 14.3 °F 17.6 °F 69% 29.96 in 10.0 mi SSW 16.1 mph 23.0 mph N/A   Clear
4:35 AM 26.6 °F 14.3 °F 17.6 °F 69% 29.95 in 10.0 mi SSW 16.1 mph 20.7 mph N/A   Clear
4:55 AM 26.6 °F 15.2 °F 17.6 °F 69% 29.95 in 10.0 mi SSW 13.8 mph - N/A   Clear
5:15 AM 26.6 °F 13.8 °F 17.6 °F 69% 29.93 in 10.0 mi SSW 17.3 mph 23.0 mph N/A   Clear
5:35 AM 26.6 °F 14.7 °F 17.6 °F 69% 29.92 in 10.0 mi SSW 15.0 mph 20.7 mph N/A   Clear
6:15 AM 28.4 °F 15.4 °F 17.6 °F 64% 29.90 in 10.0 mi SSW 19.6 mph 26.5 mph N/A   Clear
6:55 AM 26.6 °F 15.2 °F 17.6 °F 69% 29.88 in 10.0 mi South 13.8 mph 20.7 mph N/A   Clear
7:15 AM 26.6 °F 15.7 °F 17.6 °F 69% 29.87 in 10.0 mi South 12.7 mph 19.6 mph N/A   Clear
7:35 AM 26.6 °F 15.2 °F 17.6 °F 69% 29.85 in 10.0 mi South 13.8 mph - N/A   Clear
7:55 AM 28.4 °F 16.2 °F 17.6 °F 64% 29.83 in 10.0 mi South 17.3 mph - N/A   Clear
8:15 AM 28.4 °F 15.8 °F 17.6 °F 64% 29.83 in 10.0 mi South 18.4 mph 28.8 mph N/A   Clear
8:35 AM 28.4 °F 16.2 °F 17.6 °F 64% 29.82 in 10.0 mi South 17.3 mph 20.7 mph N/A   Clear
8:55 AM 26.6 °F 14.3 °F 17.6 °F 69% 29.81 in 10.0 mi South 16.1 mph 23.0 mph N/A   Clear
9:15 AM 26.6 °F 13.8 °F 17.6 °F 69% 29.80 in 10.0 mi South 17.3 mph 24.2 mph N/A   Clear
9:35 AM 26.6 °F 13.8 °F 17.6 °F 69% 29.79 in 10.0 mi South 17.3 mph 26.5 mph N/A   Clear
9:55 AM 26.6 °F 12.0 °F 17.6 °F 69% 29.78 in 10.0 mi South 23.0 mph 33.4 mph N/A   Clear
10:15 AM 28.4 °F 13.3 °F 17.6 °F 64% 29.78 in 10.0 mi SSW 27.6 mph 34.5 mph N/A   Clear
10:35 AM 28.4 °F 13.8 °F 15.8 °F 59% 29.78 in 10.0 mi SSW 25.3 mph 38.0 mph N/A   Clear
10:55 AM 28.4 °F 14.4 °F 15.8 °F 59% 29.78 in 10.0 mi SSW 23.0 mph 33.4 mph N/A   Clear
11:15 AM 28.4 °F 15.8 °F 17.6 °F 64% 29.76 in 10.0 mi South 18.4 mph 33.4 mph N/A   Clear
11:35 AM 30.2 °F 17.4 °F 17.6 °F 60% 29.76 in 10.0 mi SSW 20.7 mph 28.8 mph N/A   Clear
11:55 AM 32.0 °F 19.8 °F 17.6 °F 55% 29.74 in 10.0 mi SSW 20.7 mph 29.9 mph N/A   Clear
12:15 PM 32.0 °F 18.9 °F 17.6 °F 55% 29.72 in 10.0 mi SSW 24.2 mph 31.1 mph N/A   Clear
12:35 PM 32.0 °F 20.1 °F 17.6 °F 55% 29.72 in 10.0 mi SSW 19.6 mph 28.8 mph N/A   Clear
12:55 PM 33.8 °F 21.3 °F 17.6 °F 52% 29.71 in 10.0 mi SSW 24.2 mph 32.2 mph N/A   Clear
1:15 PM 33.8 °F 21.9 °F 17.6 °F 52% 29.70 in 10.0 mi South 21.9 mph 32.2 mph N/A   Partly Cloudy
1:35 PM 35.6 °F 23.4 °F 17.6 °F 48% 29.70 in 10.0 mi SSW 25.3 mph 32.2 mph N/A   Mostly Cloudy
1:55 PM 33.8 °F 20.1 °F 17.6 °F 52% 29.68 in 10.0 mi SSW 29.9 mph 36.8 mph N/A   Overcast
2:15 PM 33.8 °F 21.9 °F 17.6 °F 52% 29.68 in 10.0 mi SSW 21.9 mph 35.7 mph N/A   Mostly Cloudy
2:35 PM 33.8 °F 22.2 °F 19.4 °F 56% 29.67 in 10.0 mi SSW 20.7 mph 29.9 mph N/A   Partly Cloudy
2:55 PM 35.6 °F 23.2 °F 19.4 °F 52% 29.67 in 10.0 mi SSW 26.5 mph 35.7 mph N/A   Partly Cloudy
3:15 PM 35.6 °F 24.0 °F 19.4 °F 52% 29.68 in 10.0 mi SSW 23.0 mph 31.1 mph N/A   Clear
3:35 PM 35.6 °F 25.9 °F 19.4 °F 52% 29.70 in 10.0 mi SSW 16.1 mph 23.0 mph N/A   Clear
3:55 PM 35.6 °F 27.1 °F 19.4 °F 52% 29.70 in 10.0 mi SSW 12.7 mph - N/A   Clear
4:15 PM 35.6 °F 28.0 °F 21.2 °F 56% 29.69 in 10.0 mi SSW 10.4 mph - N/A   Clear
4:35 PM 33.8 °F 25.8 °F 19.4 °F 56% 29.71 in 10.0 mi SSW 10.4 mph - N/A   Clear
4:55 PM 32.0 °F 23.0 °F 19.4 °F 60% 29.71 in 10.0 mi SSW 11.5 mph 17.3 mph N/A   Clear
5:15 PM 33.8 °F 24.8 °F 21.2 °F 60% 29.71 in 10.0 mi SSW 12.7 mph - N/A   Clear
5:35 PM 33.8 °F 24.8 °F 21.2 °F 60% 29.72 in 10.0 mi SSW 12.7 mph - N/A   Mostly Cloudy
5:55 PM 32.0 °F 23.0 °F 21.2 °F 64% 29.72 in 10.0 mi SSW 11.5 mph - N/A   Scattered Clouds
6:15 PM 32.0 °F 23.0 °F 21.2 °F 64% 29.73 in 10.0 mi SSW 11.5 mph - N/A   Clear
6:35 PM 32.0 °F 23.6 °F 21.2 °F 64% 29.73 in 10.0 mi SSW 10.4 mph - N/A   Clear
6:55 PM 32.0 °F 23.6 °F 21.2 °F 64% 29.73 in 10.0 mi SSW 10.4 mph - N/A   Scattered Clouds
7:15 PM 32.0 °F 23.6 °F 21.2 °F 64% 29.73 in 10.0 mi SSW 10.4 mph - N/A   Mostly Cloudy
7:35 PM 32.0 °F 24.2 °F 23.0 °F 69% 29.74 in 10.0 mi SW 9.2 mph - N/A   Overcast
7:55 PM 32.0 °F 24.2 °F 23.0 °F 69% 29.74 in 10.0 mi SSW 9.2 mph - N/A   Overcast
8:15 PM 32.0 °F 24.2 °F 23.0 °F 69% 29.74 in 10.0 mi SW 9.2 mph - N/A   Overcast
8:35 PM 32.0 °F 24.2 °F 23.0 °F 69% 29.75 in 10.0 mi SW 9.2 mph - N/A   Overcast
8:55 PM 32.0 °F 24.8 °F 23.0 °F 69% 29.75 in 10.0 mi SSW 8.1 mph - N/A   Overcast
9:15 PM 32.0 °F 23.6 °F 23.0 °F 69% 29.75 in 10.0 mi SW 10.4 mph - N/A   Overcast
9:35 PM 32.0 °F 23.0 °F 24.8 °F 75% 29.76 in 10.0 mi WSW 11.5 mph - N/A   Mostly Cloudy
9:55 PM 32.0 °F 24.2 °F 24.8 °F 75% 29.76 in 10.0 mi WSW 9.2 mph - N/A   Scattered Clouds
10:15 PM 30.2 °F 21.3 °F 24.8 °F 80% 29.76 in 10.0 mi WSW 10.4 mph - N/A   Mostly Cloudy
10:35 PM 30.2 °F 21.9 °F 24.8 °F 80% 29.77 in 10.0 mi WSW 9.2 mph - N/A   Partly Cloudy
10:55 PM 28.4 °F 20.4 °F 24.8 °F 86% 29.77 in 10.0 mi WSW 8.1 mph - N/A   Clear
11:15 PM 26.6 °F 16.8 °F 24.8 °F 93% 29.79 in 10.0 mi West 10.4 mph - N/A   Clear
11:35 PM 28.4 °F 18.5 °F 24.8 °F 86% 29.79 in 10.0 mi West 11.5 mph - N/A   Clear
11:55 PM 28.4 °F 19.1 °F 24.8 °F 86% 29.80 in 10.0 mi West 10.4 mph - N/A   Clear